Location: Newark
(49.8348°N, 24.0280°E)
Time: 01:02:10
(UTC+00:00)

S-56A Canister/Altair - Pass Details

Date: 03 February 2020
Orbit: 633 x 2500 km, 38.9° (Epoch: 26 February)

Event Time Altitude Azimuth Distance (km) Brightness Sun altitude
Rises 15:45:44 0° 231° (SW) 5,409 13.5 -4.5°
Reaches altitude 10° 15:50:10 10° 222° (SW) 4,105 12.4 -5.2°
Maximum altitude 15:58:43 31° 167° (SSE) 2,209 9.9 -6.5°
Drops below altitude 10° 16:04:51 10° 108° (ESE) 2,896 10.0 -7.4°
Enters shadow 16:06:12 - 102° (ESE) 3,269 10.2 -7.6°
Sets 16:07:25 0° 97° (E) 3,634 - -7.8°
